DW8163 Weather Reports


Display with metric or nautical units.
time (UTC)temp
F
wind
direction
speed
MPH
gust
MPH
rain 1hr
in
rain 24hr
in
rain mn
in
humidity
%
barometer
mb
20260506221611 53 172 3.0 8.0 0.28 0.39 0.39 94 1008.0
20260506220056 53 209 2.0 7.0 0.23 0.31 0.31 93 1008.2
20260506214556 53 215 3.0 7.0 0.14 0.22 0.22 93 1008.3
20260506213110 53 177 2.0 11.0 0.07 0.14 0.14 93 1008.7
20260506211550 53 217 3.0 14.0 0.06 0.11 0.11 92 1008.7
20260506210049 53 225 2.0 9.0 0.05 0.08 0.08 93 1008.8
20260506204547 54 207 2.0 8.0 0.06 0.08 0.08 92 1008.8
20260506203045 53 225 3.0 8.0 0.05 0.07 0.07 92 1008.9
20260506201543 54 211 2.0 7.0 0.04 0.05 0.05 91 1009.0
20260506200040 54 198 3.0 13.0 0.03 0.03 0.03 91 1009.1
20260506194538 54 216 2.0 7.0 0.02 0.02 0.02 91 1009.4
20260506193038 54 135 3.0 7.0 0.02 0.02 0.02 90 1009.5
20260506191534 56 186 2.0 7.0 0.01 0.01 0.01 89 1009.5
20260506190032 56 245 2.0 9.0 0.00 0.00 0.00 87 1009.8
20260506184544 57 268 5.0 12.0 0.00 0.00 0.00 84 1010.0
20260506183038 57 237 3.0 9.0 0.00 0.00 0.00 84 1010.1
20260506181539 57 230 4.0 13.0 0.00 0.00 0.00 83 1010.3
20260506180032 58 236 5.0 15.0 0.00 0.00 0.00 83 1010.4
20260506174526 57 217 4.0 14.0 0.00 0.00 0.00 83 1010.6
20260506173024 58 167 8.0 15.0 0.00 0.00 0.00 82 1010.9
20260506171523 58 319 6.0 14.0 0.00 0.00 0.00 81 1011.2
20260506170023 60 218 6.0 16.0 0.00 0.00 0.00 79 1011.1
20260506164525 61 119 5.0 21.0 0.00 0.00 0.00 79 1011.1
20260506163020 60 226 4.0 8.0 0.00 0.00 0.00 79 1011.5
20260506161518 60 158 5.0 21.0 0.00 0.00 0.00 80 1011.7
20260506160018 60 236 4.0 9.0 0.00 0.00 0.00 80 1012.0
20260506154517 60 235 4.0 13.0 0.00 0.00 0.00 80 1012.2
20260506153021 61 219 5.0 14.0 0.00 0.00 0.00 78 1012.2
20260506151516 63 232 3.0 15.0 0.00 0.00 0.00 77 1012.1
20260506150013 62 184 5.0 9.0 0.00 0.00 0.00 78 1012.2
20260506144516 62 212 3.0 13.0 0.00 0.00 0.00 78 1012.3
20260506143014 61 204 4.0 18.0 0.00 0.00 0.00 80 1012.1
20260506141510 60 242 6.0 19.0 0.00 0.00 0.00 79 1012.2
20260506140014 61 163 3.0 14.0 0.00 0.00 0.00 80 1012.0
20260506134507 61 215 3.0 15.0 0.00 0.00 0.00 80 1011.7
20260506133005 60 162 6.0 15.0 0.00 0.00 0.00 80 1012.3
20260506131503 60 191 3.0 17.0 0.00 0.00 0.00 81 1012.4
20260506130003 60 203 6.0 19.0 0.00 0.00 0.00 82 1012.3
20260506124608 59 131 3.0 13.0 0.00 0.00 0.00 83 1012.3
20260506123057 58 229 4.0 11.0 0.00 0.00 0.00 84 1012.3
20260506121556 57 223 1.0 12.0 0.00 0.00 0.00 86 1012.5
20260506120054 57 209 4.0 15.0 0.00 0.00 0.00 86 1012.5
20260506114555 56 225 3.0 8.0 0.00 0.00 0.00 87 1012.5
20260506113051 56 190 4.0 9.0 0.00 0.00 0.00 88 1012.6
20260506111551 55 220 2.0 7.0 0.00 0.00 0.00 89 1012.8
20260506110050 55 230 3.0 10.0 0.00 0.00 0.00 89 1012.7
20260506104555 55 225 4.0 11.0 0.00 0.00 0.00 89 1012.6
20260506103054 55 236 4.0 9.0 0.00 0.00 0.00 89 1012.4
20260506101547 55 267 1.0 8.0 0.00 0.00 0.00 89 1012.4
20260506100045 55 251 3.0 8.0 0.00 0.00 0.00 89 1012.4
20260506094542 55 209 3.0 12.0 0.00 0.00 0.00 89 1012.3
20260506093042 55 233 6.0 13.0 0.00 0.00 0.00 89 1012.4
20260506091550 55 273 3.0 10.0 0.00 0.00 0.00 89 1012.5
20260506090037 56 247 4.0 10.0 0.00 0.00 0.00 89 1012.6
20260506084544 56 221 4.0 17.0 0.00 0.00 0.00 89 1012.7
20260506083036 56 246 4.0 12.0 0.00 0.00 0.00 89 1012.8
20260506081536 56 207 6.0 15.0 0.00 0.00 0.00 89 1012.8
20260506073030 56 214 6.0 15.0 0.00 0.00 0.00 88 1012.8
20260506071529 56 234 4.0 16.0 0.00 0.00 0.00 88 1012.7
20260506061524 56 187 6.0 14.0 0.00 0.00 0.00 87 1012.7
20260506044513 55 227 2.0 8.0 0.00 0.00 0.00 87 1013.3
20260506043014 55 248 3.0 7.0 0.00 0.00 0.00 87 1013.2
20260506041510 55 210 4.0 11.0 0.00 0.00 0.00 86 1013.4
20260506040008 55 210 6.0 16.0 0.00 0.00 0.00 86 1013.3
20260506034518 56 267 4.0 10.0 0.00 0.00 0.00 86 1013.4
20260506033007 56 242 3.0 10.0 0.00 0.00 0.00 85 1013.3
20260506031507 56 255 4.0 15.0 0.00 0.00 0.00 85 1013.3
20260506030019 56 182 5.0 14.0 0.00 0.00 0.00 84 1013.2
20260506024510 57 248 6.0 17.0 0.00 0.00 0.00 83 1013.0
20260506023010 57 234 6.0 18.0 0.00 0.00 0.00 82 1013.0
20260506021503 57 239 5.0 23.0 0.00 0.00 0.00 81 1012.9
20260506020002 56 229 5.0 15.0 0.00 0.00 0.00 81 1012.9
20260506014501 56 226 6.0 17.0 0.00 0.00 0.00 81 1012.8
20260506013110 56 194 4.0 15.0 0.00 0.00 0.00 80 1012.7
20260506011609 56 209 4.0 15.0 0.00 0.00 0.00 80 1012.5
20260506010059 56 243 5.0 12.0 0.00 0.00 0.00 80 1012.5
20260506004558 56 262 8.0 22.0 0.00 0.00 0.00 80 1012.5
20260506003058 57 218 3.0 20.0 0.00 0.00 0.00 80 1012.1
20260506001557 56 240 6.0 17.0 0.00 0.00 0.00 81 1011.7
20260506000058 56 227 5.0 18.0 0.00 0.00 0.00 81 1011.2
20260505234558 56 244 5.0 15.0 0.00 0.00 0.00 80 1010.9
20260505233056 57 202 5.0 13.0 0.00 0.00 0.00 79 1011.4
20260505231556 57 204 6.0 18.0 0.00 0.00 0.00 79 1011.3
20260505230104 57 140 3.0 8.0 0.00 0.00 0.00 80 1011.3
20260505224555 57 246 3.0 16.0 0.00 0.00 0.00 80 1011.1
20260505223107 57 224 5.0 17.0 0.00 0.00 0.00 80 1010.9